Sheboygan, WI

12:52 PM CDT on July 20, 2017 (GMT -0500)
Sheboygan County Memorial

Weather History for KSBM - December, 2013

Change the Weather History Date:

Saturday, December 28, 2013

  Actual Average Record
Temperature  
Mean Temperature 30 °F -  
Max Temperature 41 °F 32 °F 60 °F (1984)
Min Temperature 19 °F 18 °F -9 °F (1961)
Degree Days  
Heating Degree Days 35    
Moisture  
Dew Point 27 °F    
Average Humidity 80    
Maximum Humidity 100    
Minimum Humidity 65    
Precipitation  
Precipitation 0.00 in - - ()
Sea Level Pressure  
Sea Level Pressure 29.90 in    
Wind  
Wind Speed 10 mph (SSW)    
Max Wind Speed 23 mph    
Max Gust Speed 29 mph    
Visibility 9 miles    
Events      
Averages and records for this station are not official NWS values.
T = Trace of Precipitation, MM = Missing Value Source: NWS Daily Summary

Daily Weather History Graph

Daily Weather History Graph

Search for Another Location

Airport or City:

Trip Planner

Search our weather history database for the weather conditions in past years. The results will help you decide how hot, cold, wet, or windy it might be!

Date:

Astronomy

Dec. 28, 2013 Rise Set
Actual Time 7:24 AM CST 4:21 PM CST
Civil Twilight 6:51 AM CST 4:54 PM CST
Nautical Twilight 6:15 AM CST 5:30 PM CST
Astronomical Twilight 5:40 AM CST 6:05 PM CST
Moon 2:56 AM CST (12/28) 1:16 PM CST (12/28)
Length of Visible Light 10h 02m
Length of Day
8h 56m
Waning Crescent, 19% of the Moon is Illuminated
Dec 28
Waning Crescent
Jan 1
New
Jan 7
First Quarter
Jan 15
Full
Jan 23
Last Quarter

Hourly Weather History & Observations

Time (CST) Temp. Windchill Dew Point Humidity Pressure Visibility Wind Dir Wind Speed Gust Speed Precip Events Conditions
12:53 AM 35.1 °F 26.4 °F 28.0 °F 76% 30.01 in 10.0 mi West 12.7 mph - N/A   Clear
1:53 AM 32.0 °F 23.0 °F 27.0 °F 82% 30.02 in 10.0 mi West 11.5 mph - N/A   Clear
2:53 AM 27.0 °F 19.5 °F 23.0 °F 85% 30.02 in 10.0 mi SSW 6.9 mph - N/A   Clear
3:53 AM 24.1 °F - 23.0 °F 96% 30.04 in 9.0 mi Calm Calm - N/A   Clear
4:53 AM 23.0 °F 17.0 °F 21.0 °F 92% 30.03 in 7.0 mi South 4.6 mph - N/A   Clear
5:53 AM 24.1 °F 17.0 °F 23.0 °F 96% 30.02 in 7.0 mi South 5.8 mph - N/A   Clear
6:53 AM 23.0 °F 15.8 °F 21.0 °F 92% 30.01 in 4.0 mi SW 5.8 mph - N/A   Clear
7:05 AM 19.9 °F 13.4 °F 19.9 °F 100% 29.98 in 2.0 mi SW 4.6 mph - N/A   Clear
7:48 AM 23.0 °F 13.9 °F 23.0 °F 100% 29.98 in 5.0 mi South 8.1 mph - N/A   Clear
7:53 AM 23.0 °F 14.7 °F 23.0 °F 100% 30.01 in 5.0 mi South 6.9 mph - N/A   Clear
8:53 AM 23.0 °F 13.9 °F 21.9 °F 96% 30.00 in 5.0 mi SSW 8.1 mph - N/A   Clear
9:53 AM 30.0 °F 22.4 °F 27.0 °F 88% 29.98 in 10.0 mi SSW 8.1 mph - N/A   Clear
10:53 AM 34.0 °F 26.0 °F 28.9 °F 82% 29.95 in 10.0 mi SSW 10.4 mph - N/A   Clear
11:53 AM 37.0 °F 30.4 °F 30.0 °F 76% 29.90 in 10.0 mi South 9.2 mph - N/A   Clear
12:53 PM 39.9 °F 33.4 °F 30.9 °F 70% 29.86 in 10.0 mi South 10.4 mph - N/A   Clear
1:53 PM 39.9 °F 36.7 °F 30.9 °F 70% 29.83 in 10.0 mi South 4.6 mph - N/A   Clear
2:53 PM 39.0 °F 32.8 °F 30.9 °F 73% 29.83 in 10.0 mi SSW 9.2 mph - N/A   Clear
3:53 PM 39.0 °F 32.8 °F 30.0 °F 70% 29.83 in 10.0 mi SSW 9.2 mph - N/A   Clear
4:53 PM 39.0 °F 35.7 °F 28.9 °F 67% 29.82 in 10.0 mi SSW 4.6 mph - N/A   Clear
5:53 PM 39.0 °F 32.8 °F 28.9 °F 67% 29.79 in 10.0 mi SW 9.2 mph - N/A   Clear
6:53 PM 41.0 °F 33.1 °F 30.0 °F 65% 29.78 in 10.0 mi SW 15.0 mph - N/A   Clear
7:53 PM 41.0 °F 32.5 °F 30.0 °F 65% 29.76 in 10.0 mi SW 17.3 mph - N/A   Clear
8:53 PM 41.0 °F 31.6 °F 30.0 °F 65% 29.77 in 10.0 mi WSW 20.7 mph 28.8 mph N/A   Partly Cloudy
9:53 PM 41.0 °F 31.1 °F 30.0 °F 65% 29.75 in 10.0 mi SW 23.0 mph - N/A   Clear
10:53 PM 41.0 °F 31.9 °F 30.0 °F 65% 29.74 in 10.0 mi WSW 19.6 mph 28.8 mph N/A   Clear
11:53 PM 39.9 °F 31.4 °F 30.0 °F 68% 29.74 in 10.0 mi WSW 16.1 mph - N/A   Clear